[[{"header":{"parameterUnit":"m.s-1","parameterCategory":2,"la1":30.2992,"la2":30.254,"lo1":-89.0895,"lo2":-89.0443,"dy":0.0025,"dx":0.0025,"nx":19,"ny":19,"refTime":"2026-04-19T03:00:00:Z","depth":"0","parameterNumber":2,"parameterNumberName":"U-component_of_CURRENTS"},"data":[0,0,0,0.1776,0.1777,0.1813,0.1813,0.1818,0.1818,0,0,0,0,0,0,0,0,0,0,0,0.176,0.176,0.1776,0.1777,0.1813,0.1813,0.1818,0.1818,0,0,0,0,0,0,0,0,0,0,0,0.1759,0.176,0.176,0.1777,0.1813,0.1813,0.1818,0.18,0,0,0,0,0,0,0,0,0,0,0.1769,0.1761,0.176,0.176,0.1778,0.1813,0.1813,0.1799,0.1801,0.1792,0,0.1801,0,0.1813,0.1818,0.1818,0,0,0,0.1771,0.176,0.1772,0.176,0.1778,0.1813,0.1795,0.18,0.1802,0.1794,0.1801,0.1802,0.1813,0.1818,0.1818,0.1849,0.1849,0,0,0.1769,0.1762,0.1771,0.1774,0.1791,0.1794,0.1797,0.1802,0.1803,0.1801,0.1802,0.1813,0.1818,0.1818,0.1849,0.1849,0,0,0,0.1767,0.1761,0.1774,0.1773,0.1785,0.1795,0.1798,0.1803,0.1808,0.1802,0.1813,0.1818,0.1818,0.1848,0.1849,0.1991,0,0,0,0.1766,0.176,0.1773,0.1768,0.1785,0.18,0.1798,0.1807,0.1809,0.1813,0.1818,0.1818,0.1848,0.1849,0.1987,0.2037,0,0,0,0.1757,0.1759,0.1765,0.1768,0.1787,0.1801,0.1806,0.1808,0.1815,0.1818,0.1818,0.1848,0.1848,0.1983,0.2029,0.2299,0,0,0,0.1746,0.1766,0.1765,0.1783,0.1787,0.1801,0.1806,0.1815,0.1817,0.1818,0.1848,0.1849,0.1981,0.2025,0.2291,0.2352,0.2394,0,0,0.1767,0.1769,0.1778,0.1778,0.1793,0.1795,0.1842,0.1849,0.1829,0.1841,0.1842,0.1988,0.2029,0.2297,0.2399,0.2441,0,0,0,0.1781,0.1789,0.1793,0.1799,0.1803,0.1852,0.1849,0.189,0.1946,0.1837,0.1965,0.1985,0.2153,0.2169,0.2202,0.2198,0.1853,0.1853,0.1852,0.1807,0.1802,0.1819,0.1822,0.1836,0.1886,0.1971,0.2022,0.1975,0.2036,0.2085,0.2353,0.2366,0.2393,0.2385,0.2071,0.2072,0.2072,0.2072,0.185,0.1867,0.1854,0.1874,0.1906,0.1944,0.2081,0.2128,0.2345,0.2199,0.2359,0.2292,0.2438,0.2416,0.2081,0.208,0.2079,0.2078,0.2077,0.1886,0.1895,0.1895,0.1924,0.1971,0.2021,0.2243,0.2351,0.2464,0.2609,0.2732,0.2728,0.2738,0.2738,0.2739,0.2741,0.2742,0.2743,0.2744,0.1933,0.1932,0.1965,0.1991,0.2021,0.2153,0.237,0.257,0.2837,0.2895,0.2897,0.2814,0.2559,0.2565,0.2765,0.2761,0.2759,0.2757,0.2755,0.1986,0.1996,0.2041,0.2074,0.2175,0.2304,0.2525,0.2899,0.3164,0.3316,0.3253,0.3102,0.3096,0.3065,0.3083,0.3407,0.3407,0.3407,0.3407,0.2029,0.2037,0.2092,0.2151,0.2282,0.2379,0.2671,0.2991,0.3348,0.349,0.3518,0.3326,0.3299,0.3291,0.3256,0.3271,0.3636,0.3636,0.3636,0.2066,0.2074,0.2113,0.2161,0.2279,0.2449,0.2615,0.2871,0.3386,0.3641,0.3518,0.3509,0.3207,0.3166,0.3119,0.307,0.3079,0,0]},{"header":{"parameterUnit":"m.s-1","parameterCategory":2,"la1":30.2992,"la2":30.254,"lo1":-89.0895,"lo2":-89.0443,"dy":0.0025,"dx":0.0025,"nx":19,"ny":19,"refTime":"2026-04-19T03:00:00:Z","depth":"0","parameterNumber":3,"parameterNumberName":"V-component_of_CURRENTS"},"data":[0,0,0,-0.0158,-0.016,-0.023,-0.0231,-0.0332,-0.0333,0,0,0,0,0,0,0,0,0,0,0,-0.0135,-0.0135,-0.0158,-0.016,-0.023,-0.0231,-0.0332,-0.0333,0,0,0,0,0,0,0,0,0,0,0,-0.0134,-0.0135,-0.0135,-0.016,-0.023,-0.0231,-0.0332,-0.0277,0,0,0,0,0,0,0,0,0,0,-0.0208,-0.0177,-0.0135,-0.0135,-0.0161,-0.023,-0.0231,-0.0274,-0.0281,-0.0301,0,-0.031,0,-0.0322,-0.0339,-0.034,0,0,0,-0.0166,-0.0172,-0.0195,-0.0135,-0.0161,-0.023,-0.02,-0.0278,-0.0285,-0.0309,-0.0312,-0.0315,-0.0324,-0.034,-0.0341,-0.0339,-0.0339,0,0,-0.0162,-0.0145,-0.019,-0.0199,-0.0177,-0.0198,-0.0202,-0.0282,-0.0286,-0.0312,-0.0318,-0.0325,-0.0341,-0.0341,-0.034,-0.0339,0,0,0,-0.0147,-0.0142,-0.0164,-0.0195,-0.0206,-0.02,-0.0205,-0.0282,-0.0291,-0.0319,-0.0326,-0.0341,-0.0342,-0.0341,-0.034,-0.0147,0,0,0,-0.0145,-0.0133,-0.0162,-0.0153,-0.0204,-0.0242,-0.0203,-0.0285,-0.0295,-0.0326,-0.0341,-0.0343,-0.0342,-0.034,-0.0154,-0.0007,0,0,0,-0.0132,-0.0132,-0.014,-0.0152,-0.018,-0.0241,-0.0254,-0.0288,-0.0299,-0.034,-0.0344,-0.0342,-0.0341,-0.0161,-0.002,0.0224,0,0,0,-0.0112,-0.0119,-0.014,-0.0152,-0.0179,-0.0212,-0.0254,-0.0292,-0.0325,-0.0342,-0.0342,-0.034,-0.0163,-0.0028,0.0214,0.0343,0.0403,0,0,-0.0108,-0.0117,-0.0126,-0.0147,-0.0157,-0.0203,-0.0169,-0.0234,-0.0299,-0.032,-0.032,-0.0152,-0.0021,0.0222,0.0443,0.0501,0,0,0,-0.0116,-0.0109,-0.0124,-0.0132,-0.017,-0.01,-0.019,-0.0177,-0.0162,-0.0309,-0.0171,-0.0093,0.0055,0.0108,0.0153,-0.0126,-0.0332,-0.0332,-0.0332,-0.0049,-0.0074,-0.0058,-0.0071,-0.0063,-0.0047,0.0026,0.0037,-0.0099,-0.0043,0.0047,0.0346,0.0397,0.0435,0.0142,-0.0007,-0.0006,-0.0005,-0.0005,0.0012,0.0053,0.0048,0.0064,0.0124,0.017,0.0261,0.0246,0.0413,0.0223,0.0356,0.0285,0.0497,0.0166,0.0007,0.0005,0.0003,0.0002,0.0001,0.0094,0.0124,0.0118,0.0203,0.0327,0.037,0.067,0.0668,0.0635,0.0768,0.086,0.0856,0.0591,0.084,0.0842,0.0844,0.0845,0.0846,0.0847,0.0216,0.0213,0.0315,0.0378,0.0492,0.0713,0.093,0.1098,0.1216,0.1145,0.1145,0.0662,0.0607,0.0603,0.0874,0.0869,0.0866,0.0863,0.0862,0.0398,0.0392,0.0548,0.0658,0.0943,0.1263,0.1406,0.1733,0.1853,0.1939,0.1237,0.1357,0.1344,0.1303,0.1315,0.1757,0.1757,0.1757,0.1757,0.0564,0.0552,0.0834,0.1069,0.139,0.1571,0.2076,0.2231,0.1942,0.1673,0.1443,0.117,0.1147,0.11,0.1064,0.1061,0.1428,0.1426,0.1425,0.076,0.0794,0.1066,0.1242,0.1595,0.1942,0.2338,0.2488,0.1893,0.1371,0.1038,0.1053,0.0593,0.0578,0.0439,0.0411,0.0381,0,0]}],[{"header":{"parameterUnit":"m.s-1","parameterCategory":2,"la1":30.2992,"la2":30.254,"lo1":-89.0895,"lo2":-89.0443,"dy":0.0025,"dx":0.0025,"nx":19,"ny":19,"refTime":"2026-04-19T03:00:00:Z","depth":"2","parameterNumber":2,"parameterNumberName":"U-component_of_CURRENTS"},"data":[0,0,0,0.173,0.1732,0.1778,0.1778,0.1786,0.1786,0,0,0,0,0,0,0,0,0,0,0,0.1712,0.1712,0.173,0.1732,0.1778,0.1778,0.1786,0.1786,0,0,0,0,0,0,0,0,0,0,0,0.1712,0.1712,0.1713,0.1732,0.1778,0.1778,0.1786,0.1762,0,0,0,0,0,0,0,0,0,0,0.1723,0.1714,0.1712,0.1713,0.1732,0.1778,0.1778,0.1761,0.1763,0.1752,0,0.1765,0,0.1779,0.1786,0.1786,0,0,0,0.1725,0.1713,0.1728,0.1713,0.1733,0.1778,0.1755,0.1763,0.1765,0.1754,0.1765,0.1766,0.1779,0.1786,0.1786,0.1816,0.1817,0,0,0.1723,0.1715,0.1727,0.173,0.1751,0.1754,0.1757,0.1765,0.1767,0.1765,0.1766,0.1779,0.1786,0.1786,0.1816,0.1816,0,0,0,0.172,0.1713,0.1729,0.1729,0.1744,0.1755,0.1759,0.1766,0.1773,0.1767,0.1779,0.1786,0.1786,0.1816,0.1816,0.196,0,0,0,0.1718,0.1712,0.1728,0.1723,0.1744,0.1763,0.176,0.1772,0.1774,0.1779,0.1786,0.1786,0.1815,0.1816,0.1955,0.2005,0,0,0,0.1708,0.1711,0.1719,0.1723,0.1747,0.1763,0.177,0.1773,0.1782,0.1786,0.1786,0.1815,0.1816,0.1951,0.1997,0.2224,0,0,0,0.1694,0.1718,0.1719,0.1742,0.1747,0.1764,0.1771,0.1782,0.1786,0.1786,0.1815,0.1816,0.1949,0.1993,0.2216,0.2086,0.211,0,0,0.1717,0.172,0.1732,0.1735,0.1752,0.1757,0.1804,0.1815,0.1796,0.1807,0.1808,0.1956,0.1997,0.2222,0.2133,0.2156,0,0,0,0.1735,0.1744,0.175,0.1758,0.1765,0.1817,0.1813,0.1855,0.1914,0.1805,0.1933,0.1952,0.2093,0.1995,0.2014,0.182,0.182,0.182,0.182,0.1753,0.1752,0.1771,0.1781,0.1797,0.1851,0.1936,0.1987,0.1941,0.2004,0.2053,0.229,0.2182,0.2196,0.2038,0.2039,0.204,0.204,0.204,0.1793,0.1811,0.1805,0.1831,0.1867,0.1908,0.2046,0.2094,0.2293,0.2166,0.2299,0.2125,0.2224,0.2051,0.2049,0.2048,0.2047,0.2046,0.2045,0.1824,0.1834,0.1841,0.1878,0.1933,0.1989,0.22,0.2313,0.241,0.2542,0.2507,0.2501,0.2446,0.2645,0.2646,0.2647,0.2648,0.2649,0.265,0.1861,0.1867,0.1908,0.1945,0.1979,0.2106,0.2328,0.2494,0.265,0.2649,0.2649,0.2496,0.2476,0.2482,0.2669,0.2665,0.2663,0.2661,0.266,0.1892,0.1919,0.1973,0.2011,0.2115,0.2189,0.242,0.2643,0.2866,0.2912,0.2751,0.2742,0.2708,0.2687,0.2696,0.293,0.293,0.293,0.2929,0.192,0.1938,0.2002,0.2065,0.2175,0.2234,0.2344,0.2426,0.2614,0.262,0.2633,0.2398,0.2395,0.2329,0.2316,0.2311,0.2445,0.2444,0.2443,0.1929,0.1952,0.198,0.2049,0.2148,0.223,0.213,0.2008,0.2174,0.2419,0.2497,0.2907,0.2584,0.257,0.2478,0.2454,0.2449,0,0]},{"header":{"parameterUnit":"m.s-1","parameterCategory":2,"la1":30.2992,"la2":30.254,"lo1":-89.0895,"lo2":-89.0443,"dy":0.0025,"dx":0.0025,"nx":19,"ny":19,"refTime":"2026-04-19T03:00:00:Z","depth":"2","parameterNumber":3,"parameterNumberName":"V-component_of_CURRENTS"},"data":[0,0,0,-0.0261,-0.0262,-0.0325,-0.0325,-0.0422,-0.0423,0,0,0,0,0,0,0,0,0,0,0,-0.0239,-0.0239,-0.0261,-0.0262,-0.0325,-0.0325,-0.0422,-0.0423,0,0,0,0,0,0,0,0,0,0,0,-0.0239,-0.0239,-0.0239,-0.0262,-0.0325,-0.0325,-0.0422,-0.0372,0,0,0,0,0,0,0,0,0,0,-0.0309,-0.0279,-0.0239,-0.0239,-0.0262,-0.0325,-0.0325,-0.0369,-0.0375,-0.0396,0,-0.0402,0,-0.0412,-0.0429,-0.0429,0,0,0,-0.0269,-0.0274,-0.0295,-0.0239,-0.0263,-0.0325,-0.0298,-0.0372,-0.0379,-0.0403,-0.0403,-0.0407,-0.0414,-0.043,-0.043,-0.043,-0.0429,0,0,-0.0265,-0.0249,-0.0291,-0.0299,-0.0275,-0.0296,-0.03,-0.0376,-0.0379,-0.0403,-0.0409,-0.0416,-0.043,-0.0431,-0.043,-0.0429,0,0,0,-0.0251,-0.0247,-0.0265,-0.0295,-0.0304,-0.0298,-0.0303,-0.0376,-0.0383,-0.041,-0.0417,-0.0431,-0.0432,-0.0431,-0.043,-0.0253,0,0,0,-0.0249,-0.0238,-0.0264,-0.0255,-0.0302,-0.0337,-0.03,-0.0378,-0.0386,-0.0416,-0.0431,-0.0433,-0.0432,-0.043,-0.0259,-0.0127,0,0,0,-0.0237,-0.0236,-0.0243,-0.0254,-0.0278,-0.0336,-0.0348,-0.038,-0.039,-0.0429,-0.0433,-0.0432,-0.0431,-0.0265,-0.0139,-0.0025,0,0,0,-0.0219,-0.0222,-0.0242,-0.0251,-0.0278,-0.0306,-0.0347,-0.0382,-0.0413,-0.0431,-0.0432,-0.043,-0.0267,-0.0147,-0.0033,-0.0212,-0.019,0,0,-0.0213,-0.0221,-0.0227,-0.0246,-0.0253,-0.0298,-0.0265,-0.0327,-0.0389,-0.0412,-0.0412,-0.0257,-0.014,-0.0026,-0.0116,-0.0097,0,0,0,-0.0218,-0.021,-0.0222,-0.0227,-0.0262,-0.0199,-0.0283,-0.0276,-0.0266,-0.0398,-0.0273,-0.0204,-0.0138,-0.0265,-0.0249,-0.0422,-0.0422,-0.0422,-0.0423,-0.0158,-0.0177,-0.016,-0.0168,-0.016,-0.0147,-0.0086,-0.0082,-0.0205,-0.0156,-0.0074,0.0123,-0.0014,-0.0003,-0.0121,-0.012,-0.012,-0.0119,-0.0119,-0.0099,-0.0064,-0.0061,-0.004,0.0015,0.0058,0.013,0.0113,0.0219,0.0085,0.0138,-0.0089,0.0024,-0.0105,-0.0108,-0.011,-0.0111,-0.0112,-0.0113,-0.0028,-0.0003,0.0003,0.0088,0.0205,0.0244,0.047,0.0481,0.0409,0.0499,0.0307,0.03,0.0268,0.0496,0.0497,0.0498,0.0499,0.05,0.0501,0.0068,0.0076,0.0175,0.0247,0.0346,0.0513,0.0692,0.0755,0.0665,0.0529,0.0525,0.0331,0.0311,0.0303,0.0518,0.0515,0.0513,0.0511,0.051,0.0189,0.0215,0.0351,0.0453,0.0679,0.0803,0.0927,0.0882,0.0927,0.0792,0.0524,0.0518,0.0454,0.0434,0.0427,0.0664,0.0664,0.0664,0.0664,0.031,0.0316,0.0539,0.0728,0.0921,0.0981,0.1022,0.0899,0.0704,0.056,0.0566,0.0358,0.0352,0.0271,0.0255,0.024,0.0428,0.0428,0.0428,0.0434,0.0472,0.0652,0.081,0.1012,0.1099,0.0969,0.0803,0.0555,0.0428,0.0618,0.063,0.0323,0.0315,0.0178,0.0158,0.0127,0,0]}],[{"header":{"parameterUnit":"m.s-1","parameterCategory":2,"la1":30.2992,"la2":30.254,"lo1":-89.0895,"lo2":-89.0443,"dy":0.0025,"dx":0.0025,"nx":19,"ny":19,"refTime":"2026-04-19T03:00:00:Z","depth":"4","parameterNumber":2,"parameterNumberName":"U-component_of_CURRENTS"},"data":[0,0,0,0.063,0.0634,0.0825,0.0825,0.0985,0.0986,0,0,0,0,0,0,0,0,0,0,0,0.0561,0.0562,0.063,0.0635,0.0825,0.0825,0.0985,0.0986,0,0,0,0,0,0,0,0,0,0,0,0.056,0.0562,0.0563,0.0635,0.0824,0.0826,0.0985,0.0862,0,0,0,0,0,0,0,0,0,0,0.0688,0.0641,0.0562,0.0564,0.0636,0.0824,0.0826,0.0858,0.087,0.0874,0,0.0907,0,0.095,0.0995,0.0995,0,0,0,0.0637,0.063,0.0677,0.0564,0.0638,0.0824,0.074,0.0865,0.0879,0.0891,0.091,0.0917,0.0953,0.0996,0.0996,0.1203,0.1205,0,0,0.0626,0.06,0.0668,0.0686,0.0691,0.0733,0.0745,0.0875,0.0891,0.0911,0.0921,0.0956,0.0997,0.0998,0.1202,0.1204,0,0,0,0.0595,0.0592,0.0638,0.0678,0.072,0.0739,0.0753,0.0886,0.09,0.0923,0.0957,0.0997,0.0999,0.1201,0.1203,0.1234,0,0,0,0.0589,0.0574,0.0633,0.062,0.0718,0.0819,0.076,0.0891,0.0908,0.0957,0.0997,0.1,0.1199,0.1202,0.123,0.123,0,0,0,0.0552,0.057,0.0592,0.0618,0.0699,0.0818,0.0841,0.0896,0.0928,0.0995,0.1,0.1198,0.1201,0.1226,0.1226,0.1298,0,0,0,0.0517,0.0531,0.0592,0.0624,0.0698,0.0808,0.0841,0.0956,0.1021,0.0998,0.12,0.1203,0.1225,0.1222,0.1294,0.1105,0,0,0,0.0503,0.0529,0.0545,0.0604,0.0688,0.0782,0.0896,0.1009,0.1068,0.1147,0.1154,0.1231,0.1225,0.1297,0.1291,0,0,0,0,0.0519,0.0539,0.0572,0.0647,0.074,0.088,0.0992,0.1054,0.1202,0.1122,0.1287,0.1283,0.1326,0.1208,0.1218,0.1217,0.1217,0.1217,0.1216,0.047,0.0529,0.0581,0.0684,0.0778,0.0966,0.1066,0.1188,0.1228,0.1328,0.1349,0.1479,0.136,0.1404,0.1404,0.1404,0.1404,0.1404,0.1405,0.0455,0.0479,0.0603,0.0688,0.0853,0.0992,0.118,0.1263,0.1416,0.1427,0.1469,0.13,0.1409,0.1408,0.1407,0.1407,0.1407,0.1406,0.1406,0.0404,0.0422,0.0516,0.0666,0.0866,0.1066,0.1216,0.1389,0.1466,0.1519,0.1459,0.1522,0.1472,0.1588,0.1589,0.1589,0.1589,0.159,0.159,0.0306,0.0388,0.0482,0.0661,0.0794,0.1012,0.131,0.1395,0.1548,0.1486,0.1574,0.1542,0.1536,0.1486,0.1595,0.1594,0.1594,0.1593,0.1593,0.0232,0.0284,0.0392,0.0514,0.0787,0.0909,0.1213,0.1393,0.1487,0.1472,0.1465,0.147,0.1443,0.144,0.1385,0.1469,0.1466,0.1464,0,0.0173,0.0203,0.0343,0.0479,0.0633,0.085,0.0971,0.1137,0.1276,0.1226,0.1395,0.1376,0.1382,0.1339,0.1334,0.1262,0,0,0,0.0154,0.0192,0.0265,0.0398,0.0563,0.0781,0.1002,0.1034,0.1267,0.1326,0.1413,0.1427,0.1494,0.1612,0.1584,0.1577,0.1496,0,0]},{"header":{"parameterUnit":"m.s-1","parameterCategory":2,"la1":30.2992,"la2":30.254,"lo1":-89.0895,"lo2":-89.0443,"dy":0.0025,"dx":0.0025,"nx":19,"ny":19,"refTime":"2026-04-19T03:00:00:Z","depth":"4","parameterNumber":3,"parameterNumberName":"V-component_of_CURRENTS"},"data":[0,0,0,0.0251,0.0251,0.0251,0.0251,0.0243,0.0243,0,0,0,0,0,0,0,0,0,0,0,0.0256,0.0256,0.0251,0.0251,0.0251,0.0251,0.0243,0.0243,0,0,0,0,0,0,0,0,0,0,0,0.0256,0.0256,0.0256,0.0251,0.0251,0.0251,0.0243,0.0245,0,0,0,0,0,0,0,0,0,0,0.0246,0.0246,0.0256,0.0256,0.0251,0.0251,0.0251,0.0245,0.0245,0.0242,0,0.0247,0,0.0244,0.0243,0.0243,0,0,0,0.025,0.0246,0.0252,0.0256,0.0251,0.0251,0.025,0.0245,0.0245,0.0242,0.0247,0.0247,0.0243,0.0243,0.0243,0.0146,0.0145,0,0,0.025,0.0248,0.0252,0.0252,0.0258,0.025,0.025,0.0245,0.0244,0.0247,0.0247,0.0243,0.0243,0.0243,0.0147,0.0145,0,0,0,0.0251,0.0248,0.0254,0.0252,0.0252,0.025,0.025,0.0244,0.0248,0.0246,0.0243,0.0243,0.0243,0.0148,0.0146,0.0066,0,0,0,0.0251,0.0249,0.0254,0.0252,0.0252,0.0247,0.0249,0.0248,0.0248,0.0243,0.0243,0.0242,0.0149,0.0147,0.007,0.0093,0,0,0,0.0255,0.0249,0.0253,0.0253,0.0253,0.0247,0.025,0.0248,0.0246,0.0243,0.0242,0.015,0.0147,0.0075,0.0098,0.0045,0,0,0,0.0248,0.0282,0.0253,0.0295,0.0253,0.029,0.025,0.0274,0.0279,0.0243,0.0149,0.0146,0.0076,0.0101,0.0048,0.0183,0,0,0,0.0295,0.0287,0.0318,0.0292,0.0328,0.029,0.0273,0.0259,0.0226,0.0153,0.0151,0.0069,0.0098,0.0045,0.004,0,0,0,0,0.0336,0.0341,0.0358,0.0361,0.0377,0.0299,0.0292,0.0225,0.0106,0.0215,0.0043,0.0065,0.0033,0.012,0.0135,0.0135,0.0135,0.0136,0.0136,0.0336,0.0356,0.0377,0.0376,0.0373,0.0306,0.0228,0.0111,0.0111,0.0005,-0.0024,-0.0139,-0.0056,-0.0078,-0.0079,-0.0079,-0.008,-0.008,-0.008,0.0351,0.0334,0.0336,0.0347,0.0273,0.0226,0.0087,0.0022,-0.0126,-0.0129,-0.0159,0.0002,-0.0089,-0.0087,-0.0086,-0.0085,-0.0084,-0.0084,-0.0083,0.0298,0.0285,0.0293,0.0258,0.0174,0.0107,0.0007,-0.01,-0.0188,-0.023,-0.0145,-0.0183,-0.0149,-0.0265,-0.0265,-0.0265,-0.0266,-0.0266,-0.0266,0.0202,0.0222,0.0172,0.0148,0.0095,0.0027,-0.0068,-0.011,-0.0194,-0.0183,-0.0244,-0.02,-0.0194,-0.016,-0.0269,-0.0268,-0.0268,-0.0267,-0.0267,0.0107,0.01,0.0061,0.0016,-0.0038,-0.0034,-0.01,-0.0094,-0.0147,-0.0162,-0.0173,-0.0176,-0.0121,-0.0117,-0.0077,-0.0165,-0.0163,-0.0162,0,0.0004,0.0014,-0.0026,-0.0054,-0.0071,-0.0067,-0.0032,-0.0037,-0.0104,-0.009,-0.019,-0.0204,-0.0205,-0.0142,-0.0136,-0.0089,0,0,0,-0.0085,-0.006,-0.0076,-0.0044,-0.0057,-0.0005,0.0001,0.001,-0.0083,-0.0061,-0.0128,-0.0137,-0.0187,-0.0277,-0.0201,-0.0194,-0.0133,0,0]}]]